Somerville, NJ

5:41 AM EDT on May 24, 2017 (GMT -0400)
Somerset

Weather History for KSMQ - June, 2013

Change the Weather History Date:

Thursday, June 13, 2013

  Actual Average Record
Temperature  
Mean Temperature 60 °F -  
Max Temperature 66 °F 79 °F 93 °F (1957)
Min Temperature 57 °F 55 °F 41 °F (1979)
Degree Days  
Heating Degree Days 4    
Growing Degree Days 10 (Base 50)    
Moisture  
Dew Point 60 °F    
Average Humidity 92    
Maximum Humidity 100    
Minimum Humidity 82    
Precipitation  
Precipitation 1.40 in - - ()
Sea Level Pressure  
Sea Level Pressure 29.59 in    
Wind  
Wind Speed 3 mph (NNE)    
Max Wind Speed 12 mph    
Max Gust Speed 22 mph    
Visibility 6 miles    
Events Fog , Rain    
Averages and records for this station are not official NWS values.
T = Trace of Precipitation, MM = Missing Value Source: NWS Daily Summary

Daily Weather History Graph

Daily Weather History Graph

Search for Another Location

Airport or City:

Trip Planner

Search our weather history database for the weather conditions in past years. The results will help you decide how hot, cold, wet, or windy it might be!

Date:

Astronomy

Jun. 13, 2013 Rise Set
Actual Time 5:27 AM EDT 8:30 PM EDT
Civil Twilight 4:53 AM EDT 9:03 PM EDT
Nautical Twilight 4:11 AM EDT 9:46 PM EDT
Astronomical Twilight 3:21 AM EDT 10:36 PM EDT
Moon 10:02 AM EDT (6/13) 11:34 PM EDT (6/13)
Length of Visible Light 16h 09m
Length of Day
15h 03m
Waxing Crescent, 21% of the Moon is Illuminated
Jun 13
Waxing Crescent
Jun 16
First Quarter
Jun 23
Full
Jun 30
Last Quarter
Jul 8
New

Hourly Weather History & Observations

Time (EDT) Temp. Dew Point Humidity Pressure Visibility Wind Dir Wind Speed Gust Speed Precip Events Conditions
12:53 AM 61.0 °F 57.9 °F 90% 29.82 in 10.0 mi Calm Calm - N/A   Mostly Cloudy
1:53 AM 57.9 °F 57.0 °F 97% 29.80 in 10.0 mi Calm Calm - N/A   Partly Cloudy
2:53 AM 57.9 °F 57.0 °F 97% 29.80 in 10.0 mi Calm Calm - N/A   Clear
3:53 AM 59.0 °F 57.9 °F 96% 29.79 in 10.0 mi Calm Calm - N/A   Mostly Cloudy
4:53 AM 60.1 °F 57.9 °F 93% 29.78 in 10.0 mi West 3.5 mph - N/A   Overcast
5:53 AM 60.1 °F 59.0 °F 96% 29.76 in 10.0 mi Calm Calm - 0.01 in Rain Light Rain
6:53 AM 62.1 °F 60.1 °F 93% 29.73 in 10.0 mi Calm Calm - 0.02 in Rain Light Rain
7:53 AM 63.0 °F 60.1 °F 90% 29.73 in 10.0 mi Calm Calm - 0.02 in   Overcast
8:53 AM 64.0 °F 61.0 °F 90% 29.70 in 10.0 mi Calm Calm - N/A   Overcast
9:20 AM 62.6 °F 60.8 °F 94% 29.69 in 2.0 mi North 5.8 mph - 0.06 in Rain Rain
9:29 AM 64.4 °F 60.8 °F 88% 29.69 in 6.0 mi ENE 3.5 mph - 0.07 in Rain Light Rain
9:53 AM 63.0 °F 61.0 °F 93% 29.67 in 10.0 mi Variable 3.5 mph - 0.07 in Rain Light Rain
10:07 AM 62.6 °F 60.8 °F 94% 29.70 in 1.8 mi WNW 4.6 mph - 0.06 in Rain Rain
10:12 AM 62.6 °F 60.8 °F 94% 29.67 in 0.2 mi North 6.9 mph - 0.29 in Fog , Rain Heavy Rain
10:21 AM 62.6 °F 60.8 °F 94% 29.67 in 1.0 mi Calm Calm - 0.34 in Rain Rain
10:32 AM 60.8 °F 60.8 °F 100% 29.67 in 0.8 mi Calm Calm - 0.56 in Rain Heavy Rain
10:43 AM 60.8 °F 59.0 °F 94% 29.65 in 1.2 mi East 6.9 mph - 0.65 in Rain Rain
10:46 AM 60.8 °F 59.0 °F 94% 29.64 in 3.0 mi Variable 5.8 mph - 0.65 in Rain Rain
10:53 AM 61.0 °F 59.0 °F 93% 29.64 in 7.0 mi East 5.8 mph - 0.65 in Rain Light Rain
11:05 AM 62.6 °F 60.8 °F 94% 29.63 in 10.0 mi East 6.9 mph - 0.00 in   Overcast
11:53 AM 64.0 °F 60.1 °F 87% 29.60 in 10.0 mi ESE 3.5 mph - 0.00 in   Overcast
12:53 PM 64.9 °F 61.0 °F 87% 29.57 in 10.0 mi Variable 3.5 mph - N/A   Overcast
1:15 PM 64.4 °F 60.8 °F 88% 29.58 in 10.0 mi Variable 3.5 mph - N/A   Overcast
1:53 PM 64.9 °F 60.1 °F 84% 29.56 in 10.0 mi Variable 3.5 mph - N/A   Overcast
2:53 PM 64.0 °F 60.1 °F 87% 29.54 in 10.0 mi ENE 5.8 mph - N/A   Overcast
3:53 PM 64.9 °F 62.1 °F 90% 29.51 in 9.0 mi Variable 3.5 mph - N/A   Overcast
4:53 PM 64.9 °F 62.1 °F 90% 29.46 in 7.0 mi Variable 4.6 mph - N/A   Overcast
5:53 PM 64.9 °F 62.1 °F 90% 29.43 in 9.0 mi NE 3.5 mph - N/A   Overcast
6:24 PM 64.4 °F 62.6 °F 94% 29.46 in 1.8 mi West 10.4 mph - 0.07 in Rain Heavy Rain
6:34 PM 64.4 °F 60.8 °F 88% 29.47 in 0.8 mi WNW 8.1 mph 21.9 mph 0.23 in Rain Heavy Rain
6:39 PM 64.4 °F 60.8 °F 88% 29.46 in 1.8 mi North 9.2 mph - 0.24 in Rain Light Rain
6:41 PM 64.4 °F 60.8 °F 88% 29.45 in 3.0 mi North 9.2 mph - 0.24 in Rain Light Rain
6:53 PM 64.0 °F 61.0 °F 90% 29.45 in 2.0 mi NNE 10.4 mph - 0.30 in Rain Heavy Rain
7:00 PM 62.6 °F 60.8 °F 94% 29.46 in 1.0 mi North 5.8 mph - 0.08 in Rain Heavy Rain
7:08 PM 62.6 °F 60.8 °F 94% 29.45 in 0.8 mi NE 9.2 mph - 0.22 in Rain Heavy Rain
7:15 PM 62.6 °F 60.8 °F 94% 29.45 in 2.0 mi NNE 8.1 mph - 0.23 in Rain Light Rain
7:35 PM 62.6 °F 60.8 °F 94% 29.45 in 10.0 mi NNE 6.9 mph - 0.27 in Rain Light Rain
7:53 PM 63.0 °F 60.1 °F 90% 29.46 in 10.0 mi North 5.8 mph - 0.27 in   Overcast
8:53 PM 62.1 °F 59.0 °F 90% 29.46 in 10.0 mi Variable 5.8 mph - N/A   Mostly Cloudy
9:08 PM 62.6 °F 57.2 °F 82% 29.47 in 10.0 mi North 5.8 mph - 0.00 in Rain Light Rain
9:53 PM 61.0 °F 57.0 °F 87% 29.48 in 10.0 mi NE 11.5 mph 19.6 mph 0.00 in Rain Light Rain
11:16 PM 57.2 °F 55.4 °F 94% 29.51 in 4.0 mi North 8.1 mph - 0.01 in Rain Light Rain
11:53 PM 57.0 °F 55.0 °F 93% 29.52 in 5.0 mi North 9.2 mph 16.1 mph 0.06 in Rain Light Rain